Location: Brantley
(31.5822°N, 86.2569°W)
Time: 06:13:30
(UTC+00:00)

Vanguard 3 - Pass Details

Date: 22 February 2026
Orbit: 507 x 3205 km, 33.4° (Epoch: 9 March)

Event Time Altitude Azimuth Distance (km) Brightness Sun altitude
Rises 02:42:33 0° 279° (W) 3,380 11.2 -40.0°
Reaches altitude 10° 02:45:56 10° 263° (W) 2,117 9.9 -40.7°
Enters shadow 02:46:07 11° 261° (W) 2,057 9.8 -40.7°
Maximum altitude 02:49:19 20° 215° (SW) 1,337 - -41.4°
Drops below altitude 10° 02:52:10 10° 165° (SSE) 1,737 - -42.0°
Sets 02:54:37 0° 147° (SSE) 2,583 - -42.5°
